Back to catalog

FENGYUN 1C DEB

AliveSSO
NORAD 46986·DEBRIS·🇨🇳 China

Launched May 10, 1999 from Taiyuan Satellite Launch Center

Loading…

Next Passes (next 24 hours)

TLE

FreshSource: Space-Track

Epoch: Sep 13, 2026, 06:43 UTC

1 46986U 99025EZL 26256.28012063  .00001003  00000-0  26353-3 0  9997
2 46986  98.2186 277.6109 0105392  93.5954 267.7300 14.47983710673720

Track FENGYUN 1C DEB in real time with AllMySat

Download on the App Store